Location: Unspecified
(52.4292°N, 19.3359°E)
Time: 23:27:28
(UTC+02:00)

Altair - Pass Details

Date: 26 May 2024
Orbit: 1502 x 1682 km, 47.2° (Epoch: 19 June)

Event Time Altitude Azimuth Distance (km) Brightness Sun altitude
Rises 12:37:37 0° 262° (W) 4,854 10.2 58.8°
Reaches altitude 10° 12:40:43 10° 260° (W) 3,887 9.8 58.8°
Maximum altitude 12:50:36 67° 181° (S) 1,795 10.6 58.8°
Drops below altitude 10° 13:00:37 10° 102° (ESE) 3,944 9.8 58.6°
Sets 13:03:48 0° 100° (E) 4,928 10.2 58.5°
